Tracking 30995 objects as of 7-Jul-2025
HD Live streaming from Space Station
objects crossing your sky now

NSAT 110

Track NSAT 110 now!
NSAT 110 is classified as:


NORAD ID: 26559
Int'l Code: 2000-060A
Perigee: 36,069.6 km
Apogee: 36,132.4 km
Inclination: 5.9 °
Period: 1,451.8 minutes
Semi major axis: 42471 km
RCS: 12.5892 m2 (large)
Launch date: October 6, 2000
Source: Japan (JPN)
Launch site: FRENCH GUIANA (FRGUI)

24 Ku-band; voice and video communications to Japan.
Your satellite tracking list
Your tracking list is empty




NASA's NSSDC Master Catalog

Two Line Element Set (TLE):
1 26559U 00060A   25187.52528441 -.00000229  00000-0  00000-0 0  9991
2 26559   5.9135  74.3220 0007389  34.2436 169.4866  0.99185745 90398
Source of the keplerian elements: AFSPC